Date String (YYYY-MM-DD hh:mm:ss) UTC,Instrument flags,Ambient pressure (hPa),Sample flow (lpm),Bypass flow (lpm),Sample temperature (°C),Ambient temperature (°C),ASC tube jacket temperature (°C),LED temperature (°C),Box temperature (°C),Sample RH (%),Span deviation,Mass concentration (μg/m³),Mass concentration (μg/m³),Mass concentration (μg/m³)
DateTimeUTC,F1_M11,P_M11,Q1_M11,Q2_M11,T1_M11,T2_M11,T3_M11,T4_M11,T5_M11,U1_M11,ZSPAN_M11,X0_M11,X2_M11,X1_M11
2022-08-19 13:00:00,,0828.2,5.00,0.00,30.0,28.6,00.0,38.8,31.8,22.5,0000.0,0014.76,0007.05,0006.17
2022-08-19 13:01:00,,0828.2,4.99,0.00,30.0,28.6,00.0,38.8,31.9,22.4,0000.0,0014.77,0007.00,0006.15
2022-08-19 13:02:00,,0828.2,4.99,0.00,30.0,28.7,00.0,38.8,31.9,23.0,0000.0,0015.03,0007.02,0006.14
2022-08-19 13:03:00,,0828.2,5.00,0.00,30.0,28.8,00.0,38.8,31.9,23.2,0000.0,0015.49,0007.03,0006.13
2022-08-19 13:04:00,,0828.3,5.00,0.00,30.0,28.8,00.0,38.8,31.9,23.4,0000.0,0014.49,0007.01,0006.11
2022-08-19 13:05:00,,0828.3,5.00,0.00,30.0,28.9,00.0,38.8,31.9,23.6,0000.0,0014.17,0006.99,0006.10
2022-08-19 13:06:00,,0828.2,5.01,0.00,30.1,28.9,00.0,38.8,31.9,23.2,0000.0,0014.25,0006.99,0006.08
2022-08-19 13:07:00,,0828.3,4.99,0.00,30.1,28.9,00.0,38.8,32.0,23.1,0000.0,0014.77,0006.97,0006.06
2022-08-19 13:08:00,,0828.2,5.01,0.00,30.1,29.0,00.0,38.8,32.0,23.1,0000.0,0013.90,0007.04,0006.06
2022-08-19 13:09:00,,0828.2,5.00,0.00,30.1,29.0,00.0,38.8,32.0,23.8,0000.0,0014.01,0007.10,0006.05
2022-08-19 13:10:00,,0828.3,5.00,0.00,30.1,29.0,00.0,38.9,32.0,22.9,0000.0,0014.47,0007.14,0006.05
2022-08-19 13:11:00,,0828.3,4.99,0.00,30.1,29.0,00.0,38.9,32.0,22.7,0000.0,0014.52,0007.20,0006.05
2022-08-19 13:12:00,,0828.3,4.99,0.00,30.1,29.1,00.0,38.9,32.0,22.8,0000.0,0014.90,0007.26,0006.06
2022-08-19 13:13:00,,0828.3,5.00,0.00,30.2,29.1,00.0,38.9,32.0,22.6,0000.0,0015.88,0007.32,0006.07
2022-08-19 13:14:00,,0828.3,5.00,0.00,30.2,29.1,00.0,38.9,32.0,22.3,0000.0,0015.98,0007.45,0006.08
2022-08-19 13:15:00,,0828.3,5.00,0.00,30.2,29.1,00.0,38.9,32.0,21.7,0000.0,0018.56,0007.53,0006.08
2022-08-19 13:16:00,,0828.3,5.00,0.00,30.2,29.1,00.0,38.9,32.1,21.9,0000.0,0019.60,0007.61,0006.07
2022-08-19 13:17:00,,0828.3,5.00,0.00,30.2,29.2,00.0,38.9,32.1,22.5,0000.0,0021.50,0007.81,0006.09
2022-08-19 13:18:00,,0828.3,4.99,0.00,30.2,29.2,00.0,39.0,32.1,22.1,0000.0,0023.00,0007.96,0006.11
2022-08-19 13:19:00,,0828.4,5.00,0.00,30.2,29.2,00.0,39.0,32.1,21.5,0000.0,0023.25,0007.92,0006.12
2022-08-19 13:20:00,,0828.4,5.01,0.00,30.2,29.2,00.0,39.0,32.1,22.0,0000.0,0023.71,0008.00,0006.13
2022-08-19 13:21:00,,0828.5,5.01,0.00,30.3,29.2,00.0,39.0,32.1,21.7,0000.0,0024.32,0008.12,0006.15
2022-08-19 13:22:00,,0828.5,5.00,0.00,30.3,29.2,00.0,39.0,32.1,21.6,0000.0,0024.38,0008.15,0006.16
2022-08-19 13:23:00,,0828.5,5.00,0.00,30.3,29.3,00.0,39.0,32.2,21.7,0000.0,0024.53,0008.23,0006.19
2022-08-19 13:24:00,,0828.5,4.99,0.00,30.3,28.8,00.0,39.0,32.0,21.9,0000.0,0024.82,0008.31,0006.22
2022-08-19 13:25:00,,0828.5,4.99,0.00,30.2,28.1,00.0,38.9,31.9,22.5,0000.0,0025.16,0008.40,0006.26
2022-08-19 13:26:00,,0828.4,5.00,0.00,30.2,27.9,00.0,38.9,31.8,22.4,0000.0,0023.47,0008.50,0006.29
2022-08-19 13:27:00,,0828.5,5.00,0.00,30.1,27.8,00.0,38.9,31.7,22.4,0000.0,0023.36,0008.56,0006.32
2022-08-19 13:28:00,,0828.5,5.00,0.00,30.0,27.9,00.0,38.8,31.7,22.8,0000.0,0021.81,0008.45,0006.34
2022-08-19 13:29:00,,0828.5,4.99,0.00,30.0,28.0,00.0,38.8,31.7,22.8,0000.0,0019.90,0008.35,0006.35
2022-08-19 13:30:00,,0828.5,5.01,0.00,30.0,28.1,00.0,38.8,31.6,23.5,0000.0,0019.61,0008.35,0006.35
2022-08-19 13:31:00,,0828.6,5.00,0.00,29.9,28.2,00.0,38.8,31.7,23.2,0000.0,0019.69,0008.24,0006.35
2022-08-19 13:32:00,,0828.5,4.99,0.00,29.9,28.4,00.0,38.8,31.7,22.9,0000.0,0018.95,0008.09,0006.34
2022-08-19 13:33:00,,0828.7,5.00,0.00,29.9,28.4,00.0,38.8,31.8,23.4,0000.0,0018.79,0007.97,0006.34
2022-08-19 13:34:00,,0828.8,5.01,0.00,29.9,28.5,00.0,38.8,31.8,23.7,0000.0,0018.05,0007.83,0006.31
2022-08-19 13:35:00,,0829.0,4.99,0.00,30.0,28.6,00.0,38.8,31.8,23.6,0000.0,0016.58,0007.65,0006.28
2022-08-19 13:36:00,,0829.0,5.00,0.00,30.0,28.7,00.0,38.8,31.8,23.7,0000.0,0015.49,0007.43,0006.25
2022-08-19 13:37:00,,0828.9,5.00,0.00,30.0,28.7,00.0,38.8,31.8,23.2,0000.0,0014.67,0007.26,0006.24
2022-08-19 13:38:00,,0829.1,5.00,0.00,30.0,28.8,00.0,38.8,31.9,23.1,0000.0,0014.23,0007.17,0006.22
2022-08-19 13:39:00,,0829.0,4.99,0.00,30.0,28.8,00.0,38.8,31.9,22.8,0000.0,0014.08,0007.09,0006.22
2022-08-19 13:40:00,,0828.8,4.99,0.00,30.0,28.9,00.0,38.8,31.9,23.0,0000.0,0013.70,0007.05,0006.20
2022-08-19 13:41:00,,0828.7,5.00,0.00,30.0,28.9,00.0,38.8,31.9,23.1,0000.0,0013.63,0007.00,0006.21
2022-08-19 13:42:00,,0828.9,5.01,0.00,30.1,29.0,00.0,38.8,32.0,23.1,0000.0,0013.14,0006.99,0006.21
2022-08-19 13:43:00,,0828.7,5.00,0.00,30.1,29.0,00.0,38.8,32.0,23.1,0000.0,0012.80,0007.03,0006.21
2022-08-19 13:44:00,,0829.2,5.00,0.00,30.1,29.0,00.0,38.8,32.0,22.7,0000.0,0012.57,0007.06,0006.23
2022-08-19 13:45:00,,0829.1,5.00,0.00,30.1,29.1,00.0,38.8,32.0,22.9,0000.0,0012.95,0007.08,0006.25
2022-08-19 13:46:00,,0829.2,4.99,0.00,30.1,29.1,00.0,38.9,32.0,23.2,0000.0,0013.59,0007.16,0006.27
2022-08-19 13:47:00,,0829.1,5.01,0.00,30.2,29.1,00.0,38.9,32.0,22.9,0000.0,0014.46,0007.19,0006.29
2022-08-19 13:48:00,,0829.1,5.00,0.00,30.2,29.2,00.0,38.9,32.0,22.5,0000.0,0015.40,0007.23,0006.31
2022-08-19 13:49:00,,0829.1,5.00,0.00,30.2,29.2,00.0,38.9,32.1,22.1,0000.0,0015.79,0007.25,0006.33
2022-08-19 13:50:00,,0828.7,5.01,0.00,30.2,29.2,00.0,38.9,32.1,22.0,0000.0,0015.84,0007.25,0006.34
2022-08-19 13:51:00,,0828.7,5.00,0.00,30.2,29.0,00.0,38.9,32.1,22.5,0000.0,0015.79,0007.24,0006.37
2022-08-19 13:52:00,,0828.7,4.99,0.00,30.2,28.2,00.0,38.9,31.8,22.4,0000.0,0016.19,0007.29,0006.41
2022-08-19 13:53:00,,0828.7,5.00,0.00,30.1,27.5,00.0,38.8,31.7,22.2,0000.0,0015.94,0007.37,0006.45
2022-08-19 13:54:00,,0828.7,5.01,0.00,30.0,27.4,00.0,38.8,31.6,22.6,0000.0,0016.09,0007.44,0006.48
2022-08-19 13:55:00,,0828.7,5.01,0.00,29.9,27.5,00.0,38.8,31.6,22.7,0000.0,0016.02,0007.50,0006.51
2022-08-19 13:56:00,,0828.7,5.00,0.00,29.9,27.6,00.0,38.7,31.5,22.5,0000.0,0015.85,0007.54,0006.52
2022-08-19 13:57:00,,0828.7,5.00,0.00,29.8,27.8,00.0,38.7,31.5,23.2,0000.0,0015.39,0007.54,0006.55
2022-08-19 13:58:00,,0828.8,5.02,0.00,29.8,27.9,00.0,38.7,31.6,23.1,0000.0,0014.89,0007.54,0006.57
2022-08-19 13:59:00,,0829.1,5.00,0.00,29.8,28.1,00.0,38.7,31.6,22.8,0000.0,0013.87,0007.54,0006.60
